Voltar ao catálogo

COSMOS 679

AtivoNavegaçãoLEO
NORAD 7437·PAYLOAD·🇷🇺 Russia

Lançado Sep 19, 1974 de Plesetsk Cosmodrome

Loading…

Próximas Passagens (próximas 24 horas)

TLE

AtualizadoSource: Space-Track

Época: Sep 14, 2026, 14:29 UTC

1 07437U 74072C   26257.60374822 -.00000008  00000-0  54872-4 0  9994
2 07437  74.0327 113.8338 0027502 108.6956 251.7080 12.44424529361644

Acompanhe COSMOS 679 em tempo real com AllMySat

Download on the App Store